Spokane Fairchild, WA
on Friday, February 1, 2013

Friday
Previous Day Next Day
Daily Summary
 ActualAverage (KGEG)Record (KGEG)
Temperature
Mean Temperature °F 31°F  
Max Temperature 33°F 37°F 57°F (1934)
Min Temperature 21°F 26°F -22°F (1996)
Degree Days
Heating Degree Days 38 34  
Month to date heating degree days 34  
Since 1 July heating degree days 3967  
Cooling Degree Days 0 0  
Month to date cooling degree days 0  
Year to date cooling degree days 0  
Moisture
Dew Point 29°F   
Average Humidity 100    
Maximum Humidity 100    
Minimum Humidity 93    
Precipitation
Precipitation 0.00 in 0.04 in 1.10 in (1927)
Month to date precipitation 0.04  
Year to date precipitation 1.83  
Snow
Snow 0.00 in 0.30 in 5.20 in (1927)
Month to date snowfall 0.3  
Since 1 July snowfall 33.8  
Snow Depth 1.00 in   
Wind
Wind Speed 5 mph   
Max Wind Speed 12 mph   
Max Gust Speed mph   
Visibility 2 miles   
Events Fog , Rain   

Key: T is trace of precipitation, MM is missing value
Source: NWS Daily Summary
Time(PST)TemperatureDew PointHumidity Pressure Visibility Wind DirectionWind SpeedGust SpeedPrecipitationEvents Conditions
12:43 AM 32.0°F 32.0°F 100% 30.17 in 10.0 miles WSW 10.4 mph - N/A   Partly Cloudy
12:58 AM 32.0°F 32.0°F 100% 30.24 in 10.0 miles SW 10.4 mph - N/A   Mostly Cloudy
1:03 AM 32.0°F 32.0°F 100% 30.17 in 10.0 miles SW 11.5 mph - N/A   Mostly Cloudy
1:55 AM 30.2°F 30.2°F 100% 30.25 in 10.0 miles South 3.5 mph - N/A   Scattered Clouds
2:55 AM 30.2°F 28.4°F 93% 30.27 in 2.0 miles Calm Calm - N/A   Clear
3:23 AM 28.4°F 28.4°F 100% 30.27 in 0.5 miles Calm Calm - N/A Fog Light Freezing Fog
3:49 AM 26.6°F 26.6°F 100% 30.28 in 0.2 miles North 2.3 mph - N/A Fog Light Freezing Fog
3:55 AM 26.6°F 26.6°F 100% 30.28 in 0.2 miles NNW 2.3 mph - N/A Fog Light Freezing Fog
4:55 AM 28.4°F 28.4°F 100% 30.30 in 0.2 miles SW 4.6 mph - N/A Fog Light Freezing Fog
5:55 AM 28.4°F 28.4°F 100% 30.30 in 0.2 miles WSW 5.8 mph - N/A Fog Light Freezing Fog
6:55 AM 28.4°F 28.4°F 100% 30.33 in 0.2 miles North 3.5 mph - N/A Fog Light Freezing Fog
7:40 AM 28.4°F 28.4°F 100% 30.27 in 0.2 miles SE 3.5 mph - N/A   Unknown
7:45 AM 28.4°F 28.4°F 100% 30.27 in 0.2 miles SSE 4.6 mph - N/A   Unknown
7:50 AM 28.4°F 28.4°F 100% 30.27 in 0.2 miles South 5.8 mph - N/A   Unknown
7:58 AM 28.4°F 28.4°F 100% 30.33 in 0.2 miles South 3.5 mph - N/A   Unknown
8:13 AM 28.4°F 28.4°F 100% 30.28 in 0.2 miles East 1.2 mph - N/A Fog Light Freezing Fog
8:23 AM 30.2°F 30.2°F 100% 30.28 in 0.1 miles SE 2.3 mph - N/A Fog Light Freezing Fog
8:28 AM 30.2°F 30.2°F 100% 30.28 in 0.2 miles Variable 4.6 mph - N/A Fog Light Freezing Fog
8:58 AM 30.2°F 30.2°F 100% 30.37 in 0.2 miles South 4.6 mph - N/A   Unknown
9:18 AM 30.2°F 30.2°F 100% 30.30 in 0.2 miles SSE 2.3 mph - N/A   Unknown
9:23 AM 30.2°F 30.2°F 100% 30.30 in 0.2 miles SSE 2.3 mph - N/A Fog Light Freezing Fog
9:38 AM - - N/A% 30.30 in 0.2 miles SSE 3.5 mph - N/A Rain Light Freezing Rain
9:58 AM 32.0°F 32.0°F 100% 30.38 in 0.2 miles SSE 6.9 mph - N/A Fog Light Freezing Fog
10:03 AM 32.0°F 32.0°F 100% 30.30 in 0.2 miles South 8.1 mph - N/A Fog Light Freezing Fog
10:08 AM 32.0°F 32.0°F 100% 30.31 in 0.2 miles South 8.1 mph - N/A Fog Light Freezing Fog
10:23 AM 32.0°F 32.0°F 100% 30.31 in 0.2 miles South 8.1 mph - N/A Fog Light Freezing Fog
10:38 AM 32.0°F 32.0°F 100% 30.32 in 0.2 miles South 6.9 mph - N/A Fog Light Freezing Fog
10:58 AM 32.0°F 32.0°F 100% 30.40 in 0.2 miles South 8.1 mph - N/A Fog Light Freezing Fog
11:08 AM 32.0°F 32.0°F 100% 30.32 in 0.2 miles SSE 4.6 mph - N/A Fog Light Freezing Fog
11:13 AM 32.0°F 32.0°F 100% 30.32 in 0.2 miles SE 3.5 mph - N/A Fog Light Freezing Fog
11:23 AM 32.0°F 32.0°F 100% 30.33 in 0.2 miles SSE 4.6 mph - N/A Fog Light Freezing Fog
11:28 AM 32.0°F 32.0°F 100% 30.33 in 0.2 miles SSE 3.5 mph - N/A Fog Light Freezing Fog
11:33 AM 32.0°F 32.0°F 100% 30.32 in 0.5 miles SSE 4.6 mph - N/A Fog Light Freezing Fog
11:38 AM 32.0°F 32.0°F 100% 30.33 in 0.5 miles SSE 5.8 mph - N/A Fog Light Freezing Fog
11:43 AM 32.0°F 32.0°F 100% 30.33 in 0.5 miles SSE 4.6 mph - N/A Fog Light Freezing Fog
11:48 AM 32.0°F 32.0°F 100% 30.33 in 0.5 miles SSE 8.1 mph - N/A Fog Light Freezing Fog
11:58 AM 32.0°F 32.0°F 100% 30.40 in 0.5 miles SSW 2.3 mph - N/A Fog Light Freezing Fog
12:03 PM 32.0°F 32.0°F 100% 30.32 in 0.5 miles SSE 4.6 mph - N/A Fog Light Freezing Fog
12:08 PM 32.0°F 32.0°F 100% 30.33 in 0.8 miles South 2.3 mph - N/A   Mist
12:18 PM 32.0°F 32.0°F 100% 30.33 in 1.0 miles Variable 2.3 mph - N/A   Mist
12:23 PM 32.0°F 32.0°F 100% 30.33 in 2.5 miles South 2.3 mph - N/A   Overcast
12:28 PM 32.0°F 32.0°F 100% 30.33 in 4.0 miles SSE 3.5 mph - N/A   Overcast
12:33 PM 32.0°F 32.0°F 100% 30.33 in 2.5 miles South 2.3 mph - N/A   Overcast
12:43 PM 32.0°F 32.0°F 100% 30.33 in 4.0 miles SSE 2.3 mph - N/A   Overcast
12:58 PM 32.0°F 32.0°F 100% 30.41 in 7.0 miles SSE 4.6 mph - N/A   Overcast
1:08 PM 32.0°F 32.0°F 100% 30.33 in 10.0 miles SSE 4.6 mph - N/A   Overcast
1:38 PM 32.0°F 32.0°F 100% 30.33 in 10.0 miles Variable 2.3 mph - N/A   Overcast
1:58 PM 32.0°F 32.0°F 100% 30.42 in 10.0 miles Calm Calm - 0.00 in   Overcast
2:08 PM 32.0°F 32.0°F 100% 30.34 in 10.0 miles SW 2.3 mph - N/A   Overcast
2:43 PM 32.0°F 32.0°F 100% 30.35 in 10.0 miles South 4.6 mph - N/A   Scattered Clouds
2:58 PM 32.0°F 30.2°F 93% 30.42 in 10.0 miles SSW 4.6 mph - N/A   Clear
3:58 PM 33.8°F 32.0°F 93% 30.44 in 10.0 miles West 3.5 mph - N/A   Clear
4:58 PM 32.0°F 30.2°F 93% 30.45 in 10.0 miles West 2.3 mph - N/A   Clear
5:58 PM 30.2°F 30.2°F 100% 30.45 in 9.0 miles ENE 2.3 mph - N/A   Clear
6:28 PM 32.0°F 32.0°F 100% 30.36 in 1.0 miles WSW 1.2 mph - N/A   Clear
6:33 PM 32.0°F 32.0°F 100% 30.36 in 0.5 miles Calm Calm - N/A Fog Light Freezing Fog
6:38 PM 28.4°F 28.4°F 100% 30.36 in 0.8 miles ENE 2.3 mph - N/A   Clear
6:43 PM 28.4°F 28.4°F 100% 30.36 in 5.0 miles NNE 2.3 mph - N/A   Clear
6:58 PM 26.6°F 26.6°F 100% 30.46 in 10.0 miles NNE 2.3 mph - N/A   Clear
7:43 PM 30.2°F 30.2°F 100% 30.37 in 0.8 miles NE 4.6 mph - N/A   Clear
7:48 PM 30.2°F 30.2°F 100% 30.37 in 0.2 miles NNE 4.6 mph - N/A Fog Light Freezing Fog
7:58 PM 28.4°F 28.4°F 100% 30.46 in 0.2 miles NNE 4.6 mph - 0.00 in Fog Light Freezing Fog
8:08 PM 28.4°F 28.4°F 100% 30.38 in 0.2 miles NE 4.6 mph - N/A Fog Light Freezing Fog
8:09 PM 28.4°F 28.4°F 100% 30.38 in 3.0 miles NE 4.6 mph - N/A   Partly Cloudy
8:14 PM 28.4°F 28.4°F 100% 30.38 in 1.5 miles NNE 3.5 mph - N/A   Scattered Clouds
8:19 PM 26.6°F 26.6°F 100% 30.38 in 1.0 miles NNE 3.5 mph - N/A   Mist
8:21 PM 26.6°F 26.6°F 100% 30.38 in 0.8 miles North 3.5 mph - N/A   Unknown
8:31 PM 26.6°F 26.6°F 100% 30.38 in 0.8 miles North 3.5 mph - N/A   Mist
8:40 PM 24.8°F 24.8°F 100% 30.39 in 1.2 miles North 2.3 mph - N/A   Partly Cloudy
8:46 PM 24.8°F - N/A% 30.48 in 2.0 miles North 2.3 mph - N/A   Partly Cloudy
8:58 PM 24.8°F 24.8°F 100% 30.48 in 2.5 miles NE 2.3 mph - N/A   Partly Cloudy
9:03 PM 24.8°F 24.8°F 100% 30.39 in 2.0 miles Calm Calm - N/A   Scattered Clouds
9:08 PM 24.8°F 24.8°F 100% 30.39 in 1.8 miles Calm Calm - N/A   Mostly Cloudy
9:13 PM 24.8°F 24.8°F 100% 30.39 in 1.0 miles Calm Calm - N/A   Mist
9:18 PM 24.8°F 24.8°F 100% 30.39 in 0.5 miles NE 1.2 mph - N/A Fog Light Freezing Fog
9:23 PM 24.8°F 24.8°F 100% 30.40 in 0.5 miles Calm Calm - N/A Fog Light Freezing Fog
9:25 PM 24.8°F 24.8°F 100% 30.39 in 0.5 miles North 1.2 mph - N/A   Unknown
9:30 PM 24.8°F 24.8°F 100% 30.40 in 0.5 miles North 1.2 mph - N/A   Mist
9:32 PM 24.8°F 24.8°F 100% 30.40 in 0.8 miles NNW 2.3 mph - N/A   Mist
9:35 PM 24.8°F 24.8°F 100% 30.40 in 1.0 miles NNW 2.3 mph - N/A   Mist
9:58 PM 23.0°F 23.0°F 100% 30.51 in 1.0 miles NNE 2.3 mph - N/A   Mist
10:16 PM 24.8°F 24.8°F 100% 30.41 in 0.8 miles NE 2.3 mph - N/A   Mist
10:24 PM 24.8°F 24.8°F 100% 30.50 in 0.5 miles NE 2.3 mph - N/A Fog Light Freezing Fog
10:36 PM 24.8°F 24.8°F 100% 30.50 in 0.8 miles ENE 2.3 mph - N/A   Mist
10:46 PM 23.0°F 23.0°F 100% 30.51 in 1.0 miles NE 1.2 mph - N/A   Mist
10:58 PM 23.0°F 23.0°F 100% 30.51 in 0.8 miles ENE 3.5 mph - N/A   Mist
11:33 PM 23.0°F 23.0°F 100% 30.50 in 1.0 miles NNE 2.3 mph - N/A   Scattered Clouds
11:47 PM 23.0°F 23.0°F 100% 30.41 in 1.8 miles NNE 1.2 mph - N/A Rain Light Freezing Rain
11:48 PM 23.0°F 23.0°F 100% 30.41 in 2.0 miles NNE 1.2 mph - N/A   Mostly Cloudy
11:53 PM 21.2°F 21.2°F 100% 30.41 in 3.0 miles Calm Calm - N/A   Mostly Cloudy
11:58 PM 22.1°F 22.1°F 100% 30.51 in 5.0 miles North 1.2 mph - 0.00 in   Scattered Clouds
Moon Phase
Feb. 01 Feb. 03 Feb. 10 Feb. 17 Feb. 25
Sunrise:07:16 AM (PST) Moon Rise:11:36 PM (PST)2/1
Sunset:04:52 PM (PST) Moon Set:09:23 AM (PST)2/1

Copyright © 2014 The Weather Underground, Inc.